WB0RXX Weather Reports


Display with metric or nautical units.
time (UTC)temp
F
wind
direction
speed
MPH
gust
MPH
rain 1hr
in
rain 24hr
in
rain mn
in
humidity
%
barometer
mb
20260503235003 71 263 1.0 0.0 0.00 0.00 0.00 26 1005.4
20260503234004 71 255 2.0 3.0 0.00 0.00 0.00 26 1005.5
20260503233003 71 223 3.0 7.0 0.00 0.00 0.00 26 1005.7
20260503232003 72 237 1.0 4.0 0.00 0.00 0.00 25 1005.7
20260503231003 72 298 2.0 10.0 0.00 0.00 0.00 27 1005.9
20260503230006 73 351 2.0 3.0 0.00 0.00 0.00 26 1006.0
20260503225005 73 280 1.0 3.0 0.00 0.00 0.00 24 1006.3
20260503224005 73 251 3.0 7.0 0.00 0.00 0.00 26 1006.2
20260503223018 73 234 0.0 2.0 0.00 0.00 0.00 27 1006.3
20260503222004 73 288 1.0 0.0 0.00 0.00 0.00 28 1006.4
20260503221003 72 338 1.0 3.0 0.00 0.00 0.00 27 1006.6
20260503220003 73 355 1.0 2.0 0.00 0.00 0.00 28 1006.7
20260503215019 72 316 1.0 4.0 0.00 0.00 0.00 27 1006.7
20260503214018 72 259 1.0 3.0 0.00 0.00 0.00 27 1006.9
20260503213005 72 299 2.0 7.0 0.00 0.00 0.00 28 1007.1
20260503212003 71 289 3.0 8.0 0.00 0.00 0.00 28 1007.2
20260503211003 71 19 2.0 3.0 0.00 0.00 0.00 29 1007.6
20260503210004 71 312 4.0 10.0 0.00 0.00 0.00 28 1007.7
20260503205003 71 323 4.0 11.0 0.00 0.00 0.00 31 1007.9
20260503204003 71 288 3.0 6.0 0.00 0.00 0.00 30 1008.0
20260503203019 70 275 3.0 5.0 0.00 0.00 0.00 31 1008.1
20260503202005 70 348 4.0 8.0 0.00 0.00 0.00 33 1008.3
20260503201004 70 318 6.0 11.0 0.00 0.00 0.00 33 1008.6
20260503200004 68 298 2.0 9.0 0.00 0.00 0.00 33 1008.8
20260503195004 68 293 3.0 6.0 0.00 0.00 0.00 34 1008.9
20260503194004 68 292 4.0 5.0 0.00 0.00 0.00 36 1008.9
20260503193004 68 253 5.0 9.0 0.00 0.00 0.00 35 1008.9
20260503192004 68 337 5.0 11.0 0.00 0.00 0.00 36 1009.1
20260503191004 68 305 3.0 7.0 0.00 0.00 0.00 36 1009.2
20260503190020 68 304 4.0 9.0 0.00 0.00 0.00 37 1009.7
20260503185004 68 304 5.0 9.0 0.00 0.00 0.00 38 1009.7
20260503184004 67 275 4.0 10.0 0.00 0.00 0.00 36 1009.9
20260503183005 67 323 5.0 11.0 0.00 0.00 0.00 37 1009.8
20260503182004 67 303 4.0 8.0 0.00 0.00 0.00 37 1010.0
20260503181003 67 350 2.0 8.0 0.00 0.00 0.00 39 1010.0
20260503180004 67 307 5.0 7.0 0.00 0.00 0.00 38 1010.1
20260503175003 66 306 3.0 7.0 0.00 0.00 0.00 39 1010.2
20260503174004 65 309 5.0 14.0 0.00 0.00 0.00 38 1010.3
20260503173004 65 346 6.0 12.0 0.00 0.00 0.00 39 1010.3
20260503172003 66 298 6.0 11.0 0.00 0.00 0.00 39 1010.4
20260503171005 65 290 3.0 9.0 0.00 0.00 0.00 41 1010.6
20260503151004 59 336 4.0 9.0 0.00 0.00 0.00 52 1010.8
20260503131003 50 296 3.0 7.0 0.00 0.00 0.00 71 1010.3
20260503081003 52 315 3.0 7.0 0.00 0.00 0.00 64 1006.8
20260503072019 53 310 2.0 4.0 0.00 0.00 0.00 61 1006.6
20260503071004 53 288 2.0 3.0 0.00 0.00 0.00 60 1006.6
20260503055004 57 163 0.0 0.0 0.00 0.00 0.00 48 1006.6
20260503054004 58 157 1.0 4.0 0.00 0.00 0.00 46 1006.5
20260503053020 58 160 2.0 6.0 0.00 0.00 0.00 45 1006.5
20260503052004 59 167 3.0 5.0 0.00 0.00 0.00 44 1006.7
20260503051003 59 189 1.0 6.0 0.00 0.00 0.00 44 1006.6
20260503050007 59 196 2.0 8.0 0.00 0.00 0.00 44 1006.6
20260503045004 60 174 3.0 5.0 0.00 0.00 0.00 45 1006.7
20260503044005 60 220 2.0 4.0 0.00 0.00 0.00 43 1006.7
20260503043003 61 195 3.0 3.0 0.00 0.00 0.00 42 1006.8
20260503042004 62 174 2.0 6.0 0.00 0.00 0.00 43 1006.8
20260503041004 62 166 4.0 5.0 0.00 0.00 0.00 43 1006.9
20260503040019 61 217 5.0 12.0 0.00 0.00 0.00 46 1007.0
20260503035003 61 157 2.0 6.0 0.00 0.00 0.00 47 1007.1
20260503034004 62 165 1.0 5.0 0.00 0.00 0.00 49 1007.3
20260503033003 64 195 2.0 3.0 0.00 0.00 0.00 38 1007.7
20260503032003 64 210 1.0 5.0 0.00 0.00 0.00 38 1007.6
20260503031003 64 185 4.0 5.0 0.00 0.00 0.00 38 1007.6
20260503030003 64 170 1.0 5.0 0.00 0.00 0.00 40 1007.8
20260503025004 64 196 1.0 4.0 0.00 0.00 0.00 37 1008.0
20260503024003 64 217 1.0 2.0 0.00 0.00 0.00 37 1007.9
20260503023002 64 199 1.0 5.0 0.00 0.00 0.00 36 1008.0
20260503022003 64 159 2.0 9.0 0.00 0.00 0.00 35 1008.2
20260503021020 64 217 1.0 2.0 0.00 0.00 0.00 33 1008.8
20260503020019 64 145 0.0 1.0 0.00 0.00 0.00 34 1008.7
20260503015003 64 355 1.0 3.0 0.00 0.00 0.00 34 1008.8
20260503014020 64 157 0.0 0.0 0.00 0.00 0.00 36 1008.8
20260503013004 65 157 0.0 1.0 0.00 0.00 0.00 32 1008.8
20260503012003 65 220 1.0 1.0 0.00 0.00 0.00 34 1008.8
20260503011005 66 212 3.0 5.0 0.00 0.00 0.00 33 1008.5
20260503010002 66 180 2.0 6.0 0.00 0.00 0.00 32 1008.6
20260503005003 66 203 2.0 7.0 0.00 0.00 0.00 31 1008.8
20260503004003 67 165 1.0 4.0 0.00 0.00 0.00 32 1009.1
20260503003002 67 215 1.0 2.0 0.00 0.00 0.00 31 1009.4
20260503002004 67 210 1.0 5.0 0.00 0.00 0.00 31 1009.6
20260503001004 67 210 1.0 7.0 0.00 0.00 0.00 31 1010.0
20260503000004 67 219 0.0 1.0 0.00 0.00 0.00 31 1010.2